Location: Wanzleben
(52.0609°N, 11.4408°E)
Time: 19:17:06
(UTC+00:00)

NOSS 3-1 (C) - Pass Details

Date: 18 September 2020
Orbit: 743 x 1466 km, 63.4° (Epoch: 09 October)

Event Time Altitude Azimuth Distance (km) Brightness Sun altitude
Rises 23:20:37 0° 313° (NW) 3,824 7.1 -36.5°
Reaches altitude 10° 23:23:04 10° 314° (NW) 2,964 6.4 -36.5°
Enters shadow 23:28:49 62° 326° (NW) 1,357 4.2 -36.4°
